Location: Eisingen in Unterfranken
(49.7591°N, 9.8347°E)
Time: 19:59:50
(UTC+01:00)

Envisat - Visible Passes

Search period start: 27 November 2022 00:00
Search period end: 07 December 2022 00:00
Orbit: 763 x 765 km, 98.2° (Epoch: 27 November)

Date Brightness Start Highest point End Pass type
(mag) Time Alt. Az. Time Alt. Az. Time Alt. Az.
27 Nov 4.6 04:05:30 10° NNE 04:08:38 31° ENE 04:08:38 31° ENE visible
27 Nov 3.6 05:44:40 10° N 05:48:48 33° NW 05:48:48 33° NW visible
27 Nov 5.8 17:05:43 10° SW 17:08:50 16° W 17:11:59 10° NW visible
28 Nov 5.6 03:29:15 10° NE 03:31:00 16° ENE 03:31:00 16° ENE visible
28 Nov 3.4 05:07:22 10° N 05:11:09 48° NNW 05:11:09 48° NNW visible
28 Nov 4.7 06:48:26 10° NNW 06:50:29 12° NW 06:51:20 12° WNW visible
29 Nov 4.1 04:30:21 10° NNE 04:33:31 37° NE 04:33:31 37° NE visible
29 Nov 4.1 06:10:08 10° N 06:13:42 22° NW 06:13:42 22° NW visible
30 Nov 5.1 03:53:42 10° NNE 03:55:54 22° NE 03:55:54 22° NE visible
30 Nov 3.7 05:32:35 10° N 05:36:04 35° NNW 05:36:04 35° NNW visible
01 Dec 5.9 03:17:46 10° NE 03:18:16 12° NE 03:18:16 12° NE visible
01 Dec 3.9 04:55:23 10° NNE 04:58:26 37° N 04:58:26 37° N visible
01 Dec 4.5 06:35:54 10° NNW 06:38:37 15° NW 06:38:37 15° NW visible
02 Dec 4.7 04:18:28 10° NNE 04:20:50 26° NE 04:20:50 26° NE visible
02 Dec 4.1 05:57:58 10° N 06:01:00 24° NW 06:01:00 24° NW visible
02 Dec 6.0 17:20:06 10° WSW 17:22:08 12° W 17:24:11 10° WNW visible
03 Dec 5.6 03:41:59 10° NE 03:43:13 16° NE 03:43:13 16° NE visible
03 Dec 4.0 05:20:32 10° N 05:23:24 32° NNW 05:23:24 32° NNW visible
04 Dec 4.4 04:43:25 10° NNE 04:45:48 28° NNE 04:45:48 28° NNE visible
04 Dec 4.5 06:23:34 10° NNW 06:25:58 17° NW 06:25:58 17° NW visible
05 Dec 5.2 04:06:37 10° NNE 04:08:12 19° NE 04:08:12 19° NE visible
05 Dec 4.2 05:45:50 10° N 05:48:23 25° NNW 05:48:23 25° NNW visible
05 Dec 5.8 17:07:01 10° WSW 17:10:01 16° W 17:13:01 10° NW visible
06 Dec 5.9 03:30:19 10° NE 03:30:38 11° NE 03:30:38 11° NE visible
06 Dec 4.4 05:08:31 10° N 05:10:48 27° N 05:10:48 27° N visible
06 Dec 4.8 06:49:42 10° NNW 06:50:58 12° NW 06:50:58 12° NW visible
